This is the latest recevied weather packets stored in our database for station/object K5FEP. If no packets are shown the sender has not sent any weather packets the latest 10 day(s).
| Time | Temp. | Humidity | Pressure | Rain* | Wind** | Luminosity | Snow |
|---|---|---|---|---|---|---|---|
| 1788365055 | 35° C | 45% | 1018.2 hPa | 0 mm | - | 848 W/m² | - |
| 1788364753 | 35.56° C | 42% | 1018.1 hPa | 0 mm | - | 838 W/m² | - |
| 1788364449 | 35° C | 42% | 1018.2 hPa | 0 mm | - | 831 W/m² | - |
| 1788364142 | 35° C | 44% | 1018.2 hPa | 0 mm | - | 821 W/m² | - |
| 1788363838 | 35° C | 43% | 1018.3 hPa | 0 mm | - | 811 W/m² | - |
| 1788363537 | 35° C | 43% | 1018.4 hPa | 0 mm | - | 802 W/m² | - |
| 1788363251 | 35° C | 43% | 1018.3 hPa | 0 mm | - | 791 W/m² | - |
| 1788362932 | 34.44° C | 44% | 1018.2 hPa | 0 mm | - | 780 W/m² | - |
| 1788362628 | 34.44° C | 45% | 1018.4 hPa | 0 mm | - | 769 W/m² | - |
| 1788362323 | 35° C | 44% | 1018.3 hPa | 0 mm | - | 761 W/m² | - |
| 1788362019 | 35° C | 44% | 1018.1 hPa | 0 mm | - | 747 W/m² | - |
| 1788361719 | 34.44° C | 45% | 1018.5 hPa | 0 mm | - | 734 W/m² | - |
| 1788361415 | 33.89° C | 46% | 1018.4 hPa | 0 mm | - | 720 W/m² | - |
| 1788361114 | 33.89° C | 46% | 1018.3 hPa | 0 mm | - | 706 W/m² | - |
| 1788360810 | 33.89° C | 46% | 1018.2 hPa | 0 mm | - | 694 W/m² | - |
| 1788360505 | 33.33° C | 48% | 1018.5 hPa | 0 mm | - | 677 W/m² | - |
| 1788360202 | 33.33° C | 48% | 1018.3 hPa | 0 mm | - | 663 W/m² | - |
| 1788359896 | 33.89° C | 47% | 1018.3 hPa | 0 mm | - | 647 W/m² | - |
| 1788359591 | 33.33° C | 48% | 1018.4 hPa | 0 mm | - | 627 W/m² | - |
| 1788359287 | 33.33° C | 49% | 1018.4 hPa | 0 mm | - | 617 W/m² | - |
| 1788358982 | 33.33° C | 52% | 1018.2 hPa | 0 mm | - | 598 W/m² | - |
| 1788358683 | 33.33° C | 50% | 1018.3 hPa | 0 mm | - | 577 W/m² | - |
| 1788358379 | 33.33° C | 53% | 1018.2 hPa | 0 mm | - | 563 W/m² | - |
| 1788358078 | 32.78° C | 52% | 1018.1 hPa | 0 mm | - | 546 W/m² | - |
| 1788357773 | 32.78° C | 54% | 1018.2 hPa | 0 mm | - | 529 W/m² | - |
* Rain latest hour (hover to see other rain measurements)
** Current wind speed in m/s (hover to see current wind gust speed)